This demonstration page uses our WeatherBlox Daily Observations layout. Learn more.

Left ArrowRight Arrow

39.92423, -83.80882

Hourly Observations for June 4, 2022

Temp ( °F °C ) Dew Point ( °F °C ) Humidity (%) Winds ( mph kmh ) Pressure ( in mb ) Visibility ( mi km ) Precip ( " mm )
12:56 am 00:56 Clear 57 13.9 53 11.7 87 87 SSW 3 6 29.96 1014 10 16 0.00 0.00
1:56 am 01:56 Clear 57 13.9 52 11.1 83 83 Calm 29.96 1015 10 16 0.00 0.00
2:56 am 02:56 Clear 54 12.2 54 12.2 100 100 Calm 29.95 1014 10 16 0.00 0.00
3:56 am 03:56 Clear 53 11.7 53 11.7 100 100 Calm 29.96 1015 10 16 0.00 0.00
4:56 am 04:56 Clear 52 11 N/A N/A N 5 7 29.97 1015 10 16 0.00 0.00
5:56 am 05:56 Clear 54 12.2 45 7.2 72 72 ENE 6 9 29.98 1015 10 16 0.00 0.00
6:56 am 06:56 Sunny 56 13.3 46 7.8 70 70 E 7 11 29.98 1015 10 16 0.00 0.00
7:56 am 07:56 Sunny 61 16.1 49 9.4 65 65 NE 7 11 29.99 1016 10 16 0.00 0.00
8:56 am 08:56 Sunny 67 19.4 45 7.2 45 45 ENE 9 15 30.01 1016 10 16 0.00 0.00
9:56 am 09:56 Sunny 70 21.1 45 7.2 41 41 E 8 13 30.02 1017 10 16 0.00 0.00
10:56 am 10:56 Sunny 73 22.8 44 6.7 35 35 ESE 12 19 30.01 1016 10 16 0.00 0.00
11:56 am 11:56 Sunny 74 23.3 43 6.1 33 33 VRB 6 9 30.01 1016 10 16 0.00 0.00
12:56 pm 12:56 Sunny 75 23.9 42 5.6 31 31 VRB 5 7 30.00 1016 10 16 0.00 0.00
1:56 pm 13:56 Sunny 77 25 43 6.1 30 30 VRB 3 6 29.98 1015 9 14 0.00 0.00
2:56 pm 14:56 Sunny 78 25.6 40 4.4 26 26 SSW 5 7 29.97 1015 10 16 0.00 0.00
3:56 pm 15:56 Sunny 79 26.1 44 6.7 29 29 VRB 3 6 29.96 1014 10 16 0.00 0.00
4:56 pm 16:56 Sunny 78 25.6 44 6.7 30 30 N 10 17 29.95 1014 10 16 0.00 0.00
5:56 pm 17:56 Sunny 78 25.6 44 6.7 30 30 ENE 5 7 29.94 1014 10 16 0.00 0.00
6:56 pm 18:56 Sunny 77 25 44 6.7 31 31 N 7 11 29.93 1014 10 16 0.00 0.00
7:56 pm 19:56 Sunny 73 22.8 46 7.8 38 38 ENE 5 7 29.93 1014 10 16 0.00 0.00
8:56 pm 20:56 Sunny 69 20.6 46 7.8 44 44 ENE 6 9 29.93 1013 10 16 0.00 0.00
9:56 pm 21:56 Clear 64 17.8 48 8.9 56 56 E 5 7 29.93 1014 10 16 0.00 0.00
10:56 pm 22:56 Clear 63 17.2 47 8.3 56 56 E 6 9 29.94 1014 10 16 0.00 0.00
11:56 pm 23:56 Clear 61 16.1 46 7.8 58 58 E 3 6 29.94 1014 10 16 0.00 0.00

Powered by AerisWeather